IZ1UQG-2 Weather Reports


Display with metric or nautical units.
time (UTC)temp
F
wind
direction
speed
MPH
gust
MPH
rain 1hr
in
rain 24hr
in
rain mn
in
humidity
%
barometer
mb
20260831000005 72 325 2.0 3.0 0.00 1.31 0.00 74 1013.7
20260830235604 72 311 2.0 3.0 0.00 1.31 0.00 75 1013.7
20260830235205 72 306 1.0 3.0 0.00 1.31 0.00 75 1013.7
20260830234805 73 226 1.0 5.0 0.00 1.31 0.00 74 1013.7
20260830234404 73 220 2.0 5.0 0.00 1.31 0.00 74 1013.6
20260830234004 73 222 2.0 5.0 0.00 1.31 0.00 74 1013.7
20260830233605 73 249 1.0 2.0 0.00 1.31 0.00 73 1013.7
20260830233204 74 245 1.0 2.0 0.00 1.31 0.00 72 1013.7
20260830232804 73 244 1.0 2.0 0.00 1.31 0.00 72 1013.8
20260830232004 74 256 1.0 2.0 0.00 1.31 0.00 72 1013.7
20260830231605 74 287 1.0 3.0 0.00 1.31 0.00 72 1013.8
20260830231204 73 289 1.0 3.0 0.00 1.31 0.00 72 1013.8
20260830230804 73 289 1.0 3.0 0.00 1.31 0.00 72 1013.9
20260830230405 73 294 1.0 4.0 0.00 1.31 0.00 72 1013.8
20260830230004 73 303 1.0 4.0 0.00 1.31 0.00 72 1013.9
20260830225605 73 304 2.0 5.0 0.00 1.31 0.00 72 1013.8
20260830225204 73 305 2.0 5.0 0.00 1.31 0.00 72 1013.8
20260830224804 73 304 1.0 5.0 0.00 1.31 0.00 72 1013.8
20260830224404 74 306 0.0 2.0 0.00 1.31 0.00 73 1013.7
20260830224004 74 307 0.0 2.0 0.00 1.31 0.00 72 1013.6
20260830223604 74 302 1.0 2.0 0.00 1.31 0.00 72 1013.7
20260830223205 74 265 1.0 2.0 0.00 1.31 0.00 73 1013.7
20260830222804 74 240 1.0 2.0 0.00 1.31 0.00 73 1013.7
20260830222404 73 239 1.0 3.0 0.00 1.31 0.00 73 1013.8
20260830222005 73 238 1.0 3.0 0.00 1.31 0.00 73 1013.8
20260830221604 74 247 1.0 3.0 0.00 1.31 0.00 72 1013.7
20260830221205 74 263 1.0 3.0 0.00 1.31 0.00 71 1013.7
20260830220805 74 251 1.0 3.0 0.00 1.31 0.00 72 1013.7
20260830220405 73 240 1.0 3.0 0.00 1.31 0.00 72 1013.8
20260830220007 73 237 2.0 3.0 0.00 1.31 0.00 73 1013.7
20260830215604 73 245 1.0 3.0 0.00 1.31 1.31 73 1013.7
20260830215204 74 266 1.0 3.0 0.00 1.31 1.31 72 1013.7
20260830214804 74 258 1.0 4.0 0.00 1.31 1.31 72 1013.6
20260830214404 74 259 1.0 4.0 0.00 1.31 1.31 72 1013.6
20260830214006 74 282 1.0 2.0 0.00 1.31 1.31 72 1013.6
20260830213604 74 267 1.0 2.0 0.00 1.31 1.31 73 1013.6
20260830212804 73 228 2.0 5.0 0.00 1.31 1.31 73 1013.7
20260830211604 73 250 2.0 6.0 0.00 1.31 1.31 73 1013.4
20260830210005 74 300 0.0 1.0 0.00 1.31 1.31 71 1013.3
20260830205604 74 305 0.0 2.0 0.00 1.31 1.31 70 1013.3
20260830205205 75 325 0.0 2.0 0.00 1.31 1.31 71 1013.2
20260830204404 75 346 1.0 3.0 0.00 1.31 1.31 69 1013.2
20260830203605 74 346 3.0 4.0 0.00 1.31 1.31 72 1013.1
20260830203204 74 333 3.0 4.0 0.00 1.31 1.31 71 1013.2
20260830202404 75 297 2.0 5.0 0.00 1.31 1.31 70 1013.1
20260830202006 75 276 2.0 5.0 0.00 1.31 1.31 69 1013.1
20260830201604 75 282 1.0 4.0 0.00 1.31 1.31 68 1013.1
20260830201205 75 310 1.0 3.0 0.00 1.31 1.31 68 1013.1
20260830200804 75 303 2.0 5.0 0.00 1.31 1.31 68 1013.0
20260830200405 75 280 2.0 6.0 0.00 1.31 1.31 68 1012.9
20260830200004 75 254 3.0 6.0 0.00 1.31 1.31 69 1012.9
20260830195604 75 236 3.0 5.0 0.00 1.31 1.31 70 1012.9
20260830195205 75 227 3.0 5.0 0.00 1.31 1.31 70 1012.9
20260830194404 75 236 1.0 6.0 0.00 1.31 1.31 70 1013.0
20260830194005 75 211 3.0 8.0 0.00 1.31 1.31 69 1012.9
20260830193604 75 203 5.0 8.0 0.00 1.31 1.31 69 1012.9
20260830193204 75 201 5.0 8.0 0.00 1.31 1.31 69 1012.9
20260830192804 75 201 5.0 8.0 0.00 1.31 1.31 69 1012.8
20260830192404 76 203 5.0 8.0 0.00 1.31 1.31 69 1012.8
20260830192005 76 203 5.0 8.0 0.00 1.31 1.31 68 1012.7
20260830191604 76 204 4.0 7.0 0.00 1.31 1.31 68 1012.7
20260830191204 76 203 4.0 7.0 0.00 1.31 1.31 68 1012.7
20260830190804 76 201 5.0 9.0 0.00 1.31 1.31 68 1012.6
20260830190404 76 200 6.0 9.0 0.00 1.31 1.31 67 1012.6
20260830190005 76 201 6.0 9.0 0.00 1.31 1.31 68 1012.6
20260830185604 76 206 5.0 8.0 0.00 1.31 1.31 68 1012.6
20260830185204 76 211 4.0 8.0 0.00 1.31 1.31 68 1012.5
20260830184805 76 214 4.0 8.0 0.00 1.31 1.31 67 1012.5
20260830184404 76 214 4.0 7.0 0.00 1.31 1.31 67 1012.5
20260830184004 76 212 5.0 7.0 0.00 1.31 1.31 66 1012.4
20260830183604 76 207 5.0 7.0 0.00 1.31 1.31 66 1012.4
20260830183204 76 204 5.0 8.0 0.00 1.31 1.31 66 1012.4
20260830182404 77 203 5.0 8.0 0.00 1.31 1.31 65 1012.2
20260830182004 77 202 4.0 8.0 0.00 1.31 1.31 65 1012.1
20260830181605 77 203 5.0 8.0 0.00 1.31 1.31 65 1012.1
20260830181204 77 206 5.0 8.0 0.00 1.31 1.31 65 1012.1
20260830180404 77 204 5.0 7.0 0.00 1.31 1.31 65 1012.1
20260830180005 77 205 4.0 6.0 0.00 1.31 1.31 65 1012.1
20260830175605 78 208 4.0 7.0 0.00 1.31 1.31 65 1012.0
20260830175204 78 208 4.0 7.0 0.00 1.31 1.31 64 1011.9
20260830174804 78 206 3.0 7.0 0.00 1.31 1.31 64 1012.0
20260830174405 78 205 2.0 5.0 0.00 1.31 1.31 62 1012.0
20260830174005 79 215 2.0 6.0 0.00 1.41 1.31 62 1011.9
20260830173205 79 203 3.0 6.0 0.00 1.41 1.31 61 1011.8
20260830172804 79 206 3.0 5.0 0.00 1.41 1.31 61 1011.8
20260830172404 80 218 3.0 5.0 0.00 1.41 1.31 60 1011.7
20260830171604 80 271 1.0 3.0 0.00 1.41 1.31 58 1011.8
20260830171204 80 280 1.0 3.0 0.00 1.41 1.31 58 1011.7
20260830170804 80 304 1.0 2.0 0.00 1.41 1.31 58 1011.7
20260830170405 80 323 0.0 2.0 0.00 1.41 1.31 57 1011.6
20260830165204 81 294 1.0 3.0 0.00 1.41 1.31 56 1011.6
20260830164404 81 316 2.0 4.0 0.00 1.41 1.31 55 1011.7
20260830164005 81 331 2.0 4.0 0.00 1.41 1.31 56 1011.7
20260830163604 81 346 2.0 3.0 0.00 1.41 1.31 57 1011.7
20260830163204 81 344 2.0 4.0 0.00 1.41 1.31 58 1011.7
20260830162804 82 343 1.0 4.0 0.00 1.41 1.31 56 1011.6
20260830162404 82 349 1.0 3.0 0.00 1.41 1.31 54 1011.6
20260830162005 82 347 1.0 3.0 0.00 1.41 1.31 53 1011.5
20260830161604 82 330 2.0 3.0 0.00 1.41 1.31 54 1011.6
20260830161205 83 326 2.0 4.0 0.00 1.41 1.31 52 1011.6
20260830160404 83 334 2.0 5.0 0.00 1.41 1.31 54 1011.6
20260830160005 83 336 2.0 5.0 0.00 1.41 1.31 52 1011.6
20260830155204 83 355 2.0 6.0 0.00 1.41 1.31 52 1011.7
20260830154804 83 12 3.0 6.0 0.00 1.41 1.31 52 1011.6
20260830154405 83 47 2.0 5.0 0.00 1.41 1.31 52 1011.7
20260830153604 83 94 2.0 7.0 0.00 1.41 1.31 52 1011.8
20260830153204 83 98 2.0 7.0 0.00 1.41 1.31 52 1011.7
20260830152804 83 91 2.0 7.0 0.00 1.41 1.31 52 1011.6
20260830152405 84 94 2.0 7.0 0.00 1.41 1.31 52 1011.6
20260830152005 84 92 2.0 5.0 0.00 1.41 1.31 54 1011.7
20260830151604 83 84 2.0 6.0 0.00 1.41 1.31 54 1011.7
20260830151204 83 83 3.0 7.0 0.00 1.41 1.31 53 1011.8
20260830150804 83 78 2.0 7.0 0.00 1.41 1.31 54 1011.8
20260830150405 83 83 3.0 7.0 0.00 1.41 1.31 54 1011.8
20260830150005 83 85 3.0 6.0 0.00 1.41 1.31 54 1011.8
20260830145604 83 80 3.0 7.0 0.00 1.41 1.31 55 1011.8
20260830145204 83 84 3.0 7.0 0.00 1.41 1.31 55 1011.9
20260830144804 83 76 3.0 7.0 0.00 1.41 1.31 56 1011.9
20260830144404 83 80 3.0 6.0 0.00 1.41 1.31 56 1011.9
20260830144004 83 90 4.0 8.0 0.00 1.41 1.31 56 1011.8
20260830143605 83 91 4.0 8.0 0.00 1.41 1.31 56 1011.9
20260830143204 83 90 5.0 9.0 0.00 1.41 1.31 55 1011.9
20260830142805 83 88 6.0 9.0 0.00 1.41 1.31 55 1011.8
20260830142405 83 83 6.0 9.0 0.00 1.41 1.31 55 1011.9
20260830142004 83 77 5.0 9.0 0.00 1.41 1.31 55 1011.9
20260830141604 83 75 4.0 9.0 0.00 1.41 1.31 54 1011.8
20260830141204 84 84 4.0 10.0 0.00 1.41 1.31 54 1011.9
20260830140804 83 82 5.0 10.0 0.00 1.41 1.31 53 1012.0
20260830140404 83 81 5.0 10.0 0.00 1.41 1.31 52 1012.0
20260830135204 84 84 4.0 8.0 0.00 1.41 1.31 51 1012.0
20260830134804 85 95 4.0 8.0 0.00 1.41 1.31 51 1012.0
20260830134004 83 82 6.0 11.0 0.00 1.41 1.31 51 1012.2
20260830133604 84 86 5.0 11.0 0.00 1.41 1.31 50 1012.1
20260830133204 84 89 3.0 9.0 1.01 1.41 1.31 49 1012.1
20260830132804 85 85 4.0 10.0 1.01 1.41 1.31 49 1012.3
20260830132404 84 88 5.0 11.0 1.01 1.41 1.31 49 1012.3
20260830132006 84 81 5.0 11.0 1.01 1.41 1.31 48 1012.3
20260830131604 84 75 6.0 11.0 1.01 1.41 1.31 49 1012.4
20260830130404 83 80 7.0 12.0 2.02 1.41 1.31 50 1012.5
20260830130005 83 78 7.0 12.0 2.02 1.41 1.31 49 1012.5
20260830125605 83 72 7.0 12.0 2.02 1.41 1.31 50 1012.5
20260830124404 83 73 5.0 10.0 2.02 1.51 1.31 48 1012.6
20260830124004 83 81 5.0 10.0 2.02 1.51 1.31 50 1012.7
20260830123604 83 90 6.0 10.0 2.02 1.51 1.31 54 1012.8
20260830123204 82 87 7.0 10.0 2.01 1.41 1.20 49 1012.9
20260830122804 82 83 6.0 10.0 2.02 1.41 1.20 49 1012.8
20260830122404 83 71 5.0 10.0 3.02 1.41 1.20 47 1012.9
20260830122005 83 78 5.0 10.0 4.03 1.41 1.20 48 1012.8
20260830121604 82 78 6.0 11.0 4.03 1.51 1.20 50 1013.0
20260830121204 82 81 6.0 11.0 4.03 1.51 1.20 49 1012.9
20260830120804 82 85 6.0 11.0 4.03 1.51 1.20 49 1012.9
20260830120404 82 90 6.0 11.0 3.02 1.41 1.10 48 1012.9
20260830120005 82 91 5.0 11.0 3.02 1.41 1.10 48 1013.0
20260830115605 82 87 5.0 10.0 3.02 1.41 1.10 48 1012.8
20260830115204 82 77 5.0 10.0 3.02 1.41 1.10 50 1012.9
20260830114805 82 75 4.0 10.0 3.02 1.41 1.10 50 1013.0
20260830114404 82 83 4.0 8.0 3.02 1.41 1.10 50 1013.0
20260830114004 82 96 5.0 8.0 3.02 1.51 1.10 50 1013.0
20260830113604 82 91 4.0 8.0 3.02 1.51 1.10 50 1013.0
20260830113204 81 89 4.0 9.0 3.03 1.51 1.00 51 1013.1
20260830112804 81 79 4.0 9.0 4.02 1.51 1.00 52 1013.2
20260830112404 81 79 5.0 9.0 3.02 1.41 9.07 52 1013.3
20260830111604 80 76 5.0 9.0 3.02 1.41 8.06 52 1013.2
20260830111204 81 81 5.0 9.0 3.02 1.41 8.06 52 1013.3
20260830110804 81 84 5.0 11.0 5.03 1.51 8.06 52 1013.4
20260830110404 81 81 5.0 11.0 5.04 1.61 8.06 52 1013.5
20260830110005 80 81 6.0 11.0 5.04 1.61 8.06 52 1013.4
20260830105604 81 86 5.0 11.0 6.05 1.61 8.06 52 1013.5
20260830105204 80 90 5.0 11.0 7.05 1.61 8.06 52 1013.5
20260830104804 81 89 4.0 9.0 7.05 1.61 8.06 51 1013.5
20260830104404 81 86 4.0 8.0 7.06 1.61 8.06 52 1013.6
20260830104004 80 91 4.0 8.0 7.06 1.61 8.06 52 1013.7
20260830103604 80 76 3.0 8.0 8.06 1.61 8.06 52 1013.8
20260830102803 80 44 3.0 7.0 6.05 1.41 6.06 55 1013.8
20260830102005 80 95 2.0 5.0 6.05 1.41 6.05 53 1013.9
20260830101604 80 78 1.0 5.0 5.05 1.31 5.05 55 1014.0
20260830101204 80 67 2.0 5.0 5.04 1.31 5.04 52 1013.9
20260830100804 80 86 2.0 5.0 3.03 1.10 3.03 54 1014.0
20260830100404 79 99 2.0 4.0 3.02 1.10 3.02 53 1014.1
20260830100004 79 85 1.0 5.0 3.02 1.10 3.02 53 1014.1
20260830095604 80 77 1.0 5.0 2.02 1.00 2.02 53 1014.2
20260830094804 79 61 2.0 5.0 1.02 9.08 1.02 53 1014.1
20260830094404 79 72 2.0 5.0 1.01 9.07 1.01 52 1014.3
20260830094004 80 77 1.0 4.0 1.01 9.07 1.01 55 1014.2
20260830093604 80 100 1.0 4.0 0.01 8.07 0.01 55 1014.2
20260830093204 80 118 1.0 3.0 0.01 8.07 0.01 58 1014.3
20260830092805 80 139 1.0 3.0 0.01 8.07 0.01 56 1014.3
20260830092404 78 138 2.0 3.0 0.00 8.06 0.00 55 1014.3
20260830092007 77 163 2.0 3.0 0.00 8.06 0.00 55 1014.4
20260830091604 77 187 2.0 3.0 0.00 8.06 0.00 55 1014.4
20260830091204 77 206 1.0 3.0 0.00 8.06 0.00 55 1014.4
20260830090805 78 154 1.0 3.0 0.00 8.06 0.00 55 1014.5
20260830090404 77 39 1.0 2.0 0.00 8.06 0.00 55 1014.6
20260830090005 77 16 1.0 3.0 0.00 8.06 0.00 56 1014.6
20260830085203 76 42 1.0 3.0 0.00 8.06 0.00 57 1014.8
20260830084805 75 22 1.0 3.0 0.00 8.06 0.00 57 1014.8
20260830084404 75 343 1.0 3.0 0.00 8.06 0.00 58 1014.8
20260830084006 75 6 1.0 3.0 0.00 8.06 0.00 58 1014.8
20260830082804 74 347 2.0 4.0 0.00 8.06 0.00 60 1014.8
20260830082404 74 353 2.0 3.0 0.00 8.06 0.00 59 1014.8
20260830082005 74 1 1.0 3.0 0.00 8.06 0.00 59 1014.8
20260830081604 73 3 1.0 3.0 0.00 8.06 0.00 60 1014.9
20260830081205 73 353 2.0 4.0 0.00 8.06 0.00 62 1014.9
20260830080404 71 356 2.0 5.0 0.00 8.06 0.00 64 1015.0
20260830075604 71 350 2.0 4.0 0.00 8.06 0.00 64 1015.1
20260830075204 71 343 2.0 4.0 0.00 8.06 0.00 65 1015.0
20260830074804 70 346 2.0 4.0 0.00 8.06 0.00 65 1015.0
20260830074404 71 351 2.0 5.0 0.00 8.06 0.00 65 1015.0
20260830074005 70 353 3.0 5.0 0.00 8.06 0.00 65 1014.9
20260830073604 70 349 4.0 6.0 0.00 8.06 0.00 65 1015.0
20260830073204 70 345 3.0 6.0 0.00 8.06 0.00 64 1015.0
20260830072804 70 342 3.0 6.0 0.00 8.06 0.00 64 1015.0
20260830072404 70 341 3.0 5.0 0.00 8.06 0.00 64 1015.0
20260830072004 70 344 3.0 6.0 0.00 8.06 0.00 64 1015.0
20260830071603 69 348 4.0 6.0 0.00 8.06 0.00 65 1015.0
20260830071204 69 350 3.0 6.0 0.00 8.06 0.00 66 1015.0
20260830070804 69 355 3.0 6.0 0.00 8.06 0.00 66 1015.0
20260830070404 69 351 2.0 6.0 0.00 8.06 0.00 66 1015.0
20260830070004 69 350 4.0 6.0 0.00 8.06 0.00 67 1015.0
20260830065604 68 345 4.0 6.0 0.00 8.06 0.00 68 1015.0
20260830065204 68 340 4.0 6.0 0.00 8.06 0.00 69 1015.0
20260830064804 68 334 3.0 6.0 0.00 8.06 0.00 70 1015.0
20260830064004 68 344 3.0 5.0 0.00 8.06 0.00 71 1014.9
20260830063604 68 348 3.0 6.0 0.00 8.06 0.00 70 1014.9
20260830063204 67 346 4.0 6.0 0.00 8.06 0.00 70 1015.0
20260830062804 67 340 4.0 6.0 0.00 8.06 0.00 72 1015.0
20260830062404 67 341 3.0 6.0 0.00 8.06 0.00 72 1014.9
20260830062005 67 338 3.0 6.0 0.00 8.06 0.00 72 1014.9
20260830061604 67 332 2.0 4.0 0.00 9.06 0.00 73 1015.0
20260830061204 66 333 3.0 4.0 0.00 9.06 0.00 74 1015.0
20260830060804 67 338 3.0 5.0 0.00 9.06 0.00 72 1015.0
20260830060404 67 347 2.0 5.0 0.00 9.06 0.00 72 1015.0
20260830060004 67 337 2.0 4.0 0.00 9.06 0.00 72 1014.9
20260830055604 66 338 3.0 5.0 0.00 9.06 0.00 74 1014.9
20260830055204 66 340 3.0 5.0 0.00 9.06 0.00 74 1014.9
20260830054404 67 323 1.0 5.0 0.00 9.06 0.00 74 1014.7
20260830054005 67 298 1.0 2.0 0.00 9.06 0.00 74 1014.7
20260830053604 67 255 1.0 3.0 0.00 9.06 0.00 75 1014.6
20260830052804 66 253 1.0 3.0 0.00 9.06 0.00 76 1014.7
20260830052404 66 261 1.0 3.0 0.00 9.06 0.00 77 1014.6
20260830052005 66 285 1.0 4.0 0.00 9.07 0.00 77 1014.5
20260830051604 66 303 2.0 4.0 0.00 9.07 0.00 77 1014.5
20260830050805 65 314 3.0 5.0 0.00 9.07 0.00 78 1014.4
20260830050404 65 317 3.0 5.0 0.00 9.07 0.00 78 1014.3
20260830045604 65 319 3.0 5.0 0.00 9.07 0.00 78 1014.3
20260830044403 65 327 3.0 6.0 0.00 9.07 0.00 77 1014.1
20260830044004 65 328 3.0 6.0 0.00 9.07 0.00 76 1014.1
20260830043604 66 321 3.0 4.0 0.00 9.07 0.00 76 1013.9
20260830043204 66 310 2.0 5.0 0.00 9.07 0.00 75 1014.0
20260830042804 66 302 1.0 5.0 0.00 9.07 0.00 75 1014.0
20260830042405 66 317 1.0 2.0 0.00 9.07 0.00 75 1014.1
20260830042004 66 322 1.0 3.0 0.00 9.07 0.00 76 1014.0
20260830041204 66 312 2.0 4.0 0.00 9.07 0.00 76 1013.9
20260830040404 66 327 2.0 4.0 0.00 9.07 0.00 76 1013.9
20260830040004 66 333 2.0 4.0 0.00 9.07 0.00 75 1014.0
20260830035604 67 327 1.0 4.0 0.00 9.07 0.00 75 1013.8
20260830035204 67 326 1.0 4.0 0.00 9.07 0.00 74 1013.7
20260830034805 67 317 1.0 4.0 0.00 9.07 0.00 74 1013.8
20260830034403 67 311 0.0 2.0 0.00 9.07 0.00 75 1013.7
20260830034004 67 281 0.0 2.0 0.00 9.07 0.00 74 1013.8
20260830033604 67 329 0.0 1.0 0.00 9.07 0.00 75 1013.7
20260830033204 67 330 0.0 2.0 0.00 9.07 0.00 75 1013.7
20260830032804 67 334 1.0 2.0 0.00 9.07 0.00 75 1013.7
20260830032404 67 337 1.0 2.0 0.00 9.07 0.00 75 1013.7
20260830032004 67 346 1.0 4.0 0.00 9.07 0.00 75 1013.8
20260830031604 67 339 1.0 4.0 0.00 9.07 0.00 75 1013.8
20260830031204 67 335 1.0 4.0 0.00 9.07 0.00 75 1013.6
20260830030804 67 341 0.0 2.0 0.00 9.07 0.00 75 1013.7
20260830030404 67 340 1.0 3.0 0.00 9.07 0.00 75 1013.7
20260830025604 67 336 1.0 3.0 0.00 9.07 0.00 75 1013.7
20260830025204 67 338 1.0 4.0 0.00 9.07 0.00 75 1013.6
20260830024404 67 337 1.0 4.0 0.00 9.07 0.00 75 1013.6
20260830024004 67 329 2.0 4.0 0.00 9.07 0.00 75 1013.6
20260830023604 67 317 1.0 3.0 0.00 9.07 0.00 75 1013.6
20260830023204 67 314 1.0 3.0 0.00 9.07 0.00 76 1013.6
20260830022804 67 320 2.0 4.0 0.00 9.07 0.00 76 1013.6
20260830022404 67 332 2.0 4.0 0.00 9.07 0.00 75 1013.7
20260830022004 67 337 1.0 4.0 0.00 9.07 0.00 74 1013.7
20260830021604 67 331 0.0 3.0 0.00 9.07 0.00 74 1013.6
20260830021204 68 274 0.0 2.0 0.00 9.07 0.00 74 1013.6
20260830020804 68 296 1.0 2.0 0.00 9.07 0.00 75 1013.6
20260830020404 68 323 1.0 4.0 0.00 9.07 0.00 75 1013.8
20260830020004 67 341 1.0 4.0 0.00 9.07 0.00 75 1013.8
20260830015604 67 341 1.0 4.0 0.00 9.07 0.00 74 1013.7
20260830014804 68 338 1.0 3.0 0.00 9.07 0.00 74 1013.7
20260830014404 68 59 0.0 2.0 0.00 9.07 0.00 74 1013.7
20260830013604 68 342 2.0 5.0 0.00 9.07 0.00 74 1013.6
20260830013204 68 344 3.0 5.0 0.00 9.07 0.00 75 1013.7
20260830012803 68 345 3.0 5.0 0.00 9.07 0.00 74 1013.7
20260830012403 68 340 3.0 5.0 0.00 9.07 0.00 74 1013.7
20260830012004 68 327 2.0 5.0 0.00 9.07 0.00 76 1013.7
20260830011604 68 284 1.0 4.0 0.00 9.07 0.00 76 1013.7
20260830011204 69 216 0.0 1.0 0.00 9.07 0.00 74 1013.6
20260830010804 68 216 0.0 2.0 0.00 9.07 0.00 75 1013.5
20260830010403 68 236 0.0 2.0 0.00 9.07 0.00 75 1013.6
20260830010004 69 291 1.0 3.0 0.00 9.07 0.00 75 1013.5
20260830005604 69 312 1.0 3.0 0.00 9.07 0.00 74 1013.4
20260830005204 69 330 1.0 3.0 0.00 9.07 0.00 74 1013.5
20260830004804 69 346 1.0 3.0 0.00 9.07 0.00 72 1013.5
20260830004404 69 310 0.0 3.0 0.00 9.07 0.00 72 1013.4
20260830004005 69 231 0.0 2.0 0.00 9.07 0.00 72 1013.4
20260830003604 69 303 0.0 2.0 0.00 9.07 0.00 72 1013.5
20260830003203 69 292 0.0 2.0 0.00 9.07 0.00 73 1013.4
20260830002804 69 297 0.0 2.0 0.00 9.07 0.00 72 1013.5
20260830002404 69 314 0.0 2.0 0.00 9.07 0.00 74 1013.5
20260830002004 69 335 1.0 4.0 0.00 9.07 0.00 74 1013.5
20260830000804 69 357 0.0 2.0 0.00 9.07 0.00 73 1013.4
20260830000404 69 23 0.0 4.0 0.00 9.07 0.00 72 1013.5